• în România
  • Lista ţărilor
  • Pe 7 zile
  • Temperatura apei
  • Hartă satelitară
  • Meteo pe hartă
  • Widget-uri
  • user-avatar
    Intrare

    Meteo pe oră la Luanda

    Astăzi, 30 Aprilie, Duminică

    Timp Temperatura Precipitaţii Vânt Presiune Umiditate
    00:00 +27°C° 0 mm 3 m/s 754 mmHg 85%
    01:00 +27°C° 0 mm 3 m/s 754 mmHg 86%
    02:00 +26°C° 0 mm 3 m/s 754 mmHg 87%
    03:00 +26°C° 0 mm 3 m/s 753 mmHg 88%
    04:00 +26°C° 0 mm 3 m/s 753 mmHg 89%
    05:00 +26°C° 0 mm 3 m/s 753 mmHg 87%
    06:00 +26°C° 0 mm 3 m/s 754 mmHg 85%
    07:00 +26°C° 0 mm 3 m/s 754 mmHg 84%
    08:00 +29°C° 0 mm 3 m/s 754 mmHg 72%
    09:00 +33°C° 0 mm 3 m/s 754 mmHg 61%
    10:00 +35°C° 0 mm 3 m/s 754 mmHg 49%
    11:00 +37°C° 0 mm 3 m/s 754 mmHg 43%
    12:00 +40°C° 0 mm 4 m/s 753 mmHg 37%
    13:00 +42°C° 0 mm 4 m/s 752 mmHg 31%
    14:00 +41°C° 0 mm 5 m/s 752 mmHg 32%
    15:00 +40°C° 0 mm 5 m/s 751 mmHg 34%
    16:00 +39°C° 0 mm 6 m/s 750 mmHg 36%
    17:00 +36°C° 0 mm 5 m/s 751 mmHg 47%
    18:00 +33°C° 0 mm 5 m/s 751 mmHg 57%
    19:00 +30°C° 0 mm 4 m/s 751 mmHg 68%
    20:00 +29°C° 0 mm 4 m/s 752 mmHg 73%
    21:00 +28°C° 0 mm 3 m/s 753 mmHg 78%
    22:00 +27°C° 0 mm 2 m/s 753 mmHg 83%
    23:00 +27°C° 0 mm 2 m/s 753 mmHg 83%

    Mâine, 1 Mai, Luni

    Timp Temperatura Precipitaţii Vânt Presiune Umiditate
    00:00 +27°C° 0 mm 2 m/s 753 mmHg 84%
    01:00 +26°C° 0 mm 2 m/s 753 mmHg 84%
    02:00 +26°C° 0 mm 2 m/s 753 mmHg 84%
    03:00 +26°C° 0 mm 2 m/s 753 mmHg 83%
    04:00 +26°C° 0 mm 2 m/s 752 mmHg 83%
    05:00 +26°C° 0 mm 2 m/s 753 mmHg 80%
    06:00 +27°C° 0 mm 2 m/s 753 mmHg 77%
    07:00 +27°C° 0 mm 2 m/s 753 mmHg 74%
    08:00 +30°C° 0 mm 2 m/s 753 mmHg 62%
    09:00 +34°C° 0 mm 2 m/s 754 mmHg 51%
    10:00 +37°C° 0 mm 2 m/s 754 mmHg 39%
    11:00 +38°C° 0 mm 2 m/s 753 mmHg 35%
    12:00 +39°C° 0 mm 3 m/s 753 mmHg 31%
    13:00 +42°C° 0 mm 4 m/s 752 mmHg 26%
    14:00 +41°C° 0 mm 4 m/s 751 mmHg 30%
    15:00 +40°C° 0 mm 5 m/s 751 mmHg 34%
    16:00 +39°C° 0 mm 5 m/s 750 mmHg 38%
    17:00 +35°C° 0 mm 5 m/s 750 mmHg 49%
    18:00 +33°C° 0 mm 5 m/s 751 mmHg 60%
    19:00 +29°C° 0 mm 4 m/s 751 mmHg 71%
    20:00 +28°C° 0 mm 4 m/s 752 mmHg 77%
    21:00 +28°C° 0 mm 3 m/s 752 mmHg 82%
    22:00 +27°C° 0 mm 3 m/s 753 mmHg 88%
    23:00 +27°C° 0 mm 2 m/s 753 mmHg 88%

    Poimâine, 2 Mai, Marţi

    Timp Temperatura Precipitaţii Vânt Presiune Umiditate
    00:00 +26°C° 0 mm 2 m/s 753 mmHg 89%
    01:00 +26°C° 0 mm 2 m/s 752 mmHg 90%
    02:00 +26°C° 0 mm 2 m/s 752 mmHg 89%
    03:00 +26°C° 0 mm 2 m/s 752 mmHg 88%
    04:00 +25°C° 0 mm 2 m/s 751 mmHg 87%
    05:00 +26°C° 0 mm 2 m/s 752 mmHg 84%
    06:00 +26°C° 0 mm 3 m/s 752 mmHg 80%
    07:00 +26°C° 0 mm 3 m/s 753 mmHg 76%
    08:00 +29°C° 0 mm 3 m/s 753 mmHg 64%
    09:00 +33°C° 0 mm 3 m/s 753 mmHg 51%
    10:00 +36°C° 0 mm 3 m/s 754 mmHg 39%
    11:00 +38°C° 0 mm 3 m/s 753 mmHg 34%
    12:00 +40°C° 0 mm 4 m/s 752 mmHg 29%
    13:00 +42°C° 0 mm 4 m/s 751 mmHg 23%
    14:00 +41°C° 0 mm 4 m/s 751 mmHg 28%
    15:00 +40°C° 0 mm 5 m/s 750 mmHg 34%
    16:00 +37°C° 0 mm 5 m/s 750 mmHg 39%
    17:00 +35°C° 0 mm 5 m/s 750 mmHg 50%
    18:00 +32°C° 0 mm 4 m/s 751 mmHg 62%
    19:00 +29°C° 0 mm 4 m/s 751 mmHg 74%
    20:00 +28°C° 0 mm 3 m/s 752 mmHg 77%
    21:00 +28°C° 0 mm 2 m/s 752 mmHg 81%
    22:00 +27°C° 0 mm 2 m/s 753 mmHg 85%
    23:00 +27°C° 0 mm 2 m/s 753 mmHg 86%

    3 Mai, Miercuri

    Timp Temperatura Precipitaţii Vânt Presiune Umiditate
    00:00 +26°C° 0 mm 1 m/s 752 mmHg 87%
    01:00 +26°C° 0 mm 1 m/s 752 mmHg 88%
    02:00 +26°C° 0 mm 1 m/s 752 mmHg 88%
    03:00 +25°C° 0 mm 1 m/s 752 mmHg 88%
    04:00 +25°C° 0 mm 1 m/s 752 mmHg 88%
    05:00 +26°C° 0 mm 1 m/s 752 mmHg 83%
    06:00 +26°C° 0 mm 1 m/s 752 mmHg 79%
    07:00 +27°C° 0 mm 2 m/s 753 mmHg 75%
    08:00 +30°C° 0 mm 2 m/s 753 mmHg 63%
    09:00 +34°C° 0 mm 2 m/s 753 mmHg 51%
    10:00 +36°C° 0 mm 1 m/s 753 mmHg 40%
    11:00 +38°C° 0 mm 2 m/s 752 mmHg 35%
    12:00 +39°C° 0 mm 3 m/s 752 mmHg 31%
    13:00 +42°C° 0 mm 4 m/s 751 mmHg 27%
    14:00 +40°C° 0 mm 4 m/s 750 mmHg 32%
    15:00 +39°C° 0 mm 5 m/s 750 mmHg 37%
    16:00 +36°C° 0 mm 6 m/s 750 mmHg 42%
    17:00 +34°C° 0 mm 5 m/s 750 mmHg 54%
    18:00 +32°C° 0 mm 4 m/s 751 mmHg 66%
    19:00 +28°C° 0 mm 4 m/s 751 mmHg 77%
    20:00 +27°C° 0 mm 3 m/s 752 mmHg 82%
    21:00 +27°C° 0 mm 3 m/s 752 mmHg 86%
    22:00 +26°C° 0 mm 2 m/s 753 mmHg 90%
    23:00 +26°C° 0 mm 2 m/s 752 mmHg 90%

    4 Mai, Joi

    Timp Temperatura Precipitaţii Vânt Presiune Umiditate
    00:00 +26°C° 0 mm 1 m/s 752 mmHg 90%
    01:00 +25°C° 0 mm 1 m/s 752 mmHg 90%
    02:00 +25°C° 0 mm 1 m/s 752 mmHg 91%
    03:00 +25°C° 0 mm 1 m/s 752 mmHg 92%
    04:00 +24°C° 0 mm 1 m/s 752 mmHg 93%
    05:00 +25°C° 0 mm 1 m/s 752 mmHg 88%
    06:00 +26°C° 0 mm 1 m/s 752 mmHg 83%
    07:00 +26°C° 0 mm 2 m/s 753 mmHg 79%
    08:00 +29°C° 0 mm 2 m/s 753 mmHg 66%
    09:00 +32°C° 0 mm 2 m/s 753 mmHg 54%
    10:00 +36°C° 0 mm 2 m/s 753 mmHg 41%
    11:00 +37°C° 0 mm 3 m/s 753 mmHg 36%
    12:00 +39°C° 0 mm 3 m/s 752 mmHg 30%
    13:00 +42°C° 0 mm 4 m/s 751 mmHg 25%
    14:00 +41°C° 0 mm 4 m/s 750 mmHg 28%
    15:00 +40°C° 0 mm 5 m/s 750 mmHg 32%
    16:00 +39°C° 0 mm 5 m/s 749 mmHg 35%
    17:00 +35°C° 0 mm 5 m/s 750 mmHg 48%
    18:00 +32°C° 0 mm 4 m/s 750 mmHg 61%
    19:00 +28°C° 0 mm 4 m/s 751 mmHg 73%
    20:00 +27°C° 0 mm 3 m/s 751 mmHg 77%
    21:00 +27°C° 0 mm 3 m/s 752 mmHg 81%
    22:00 +26°C° 0 mm 2 m/s 752 mmHg 85%
    23:00 +26°C° 0 mm 2 m/s 752 mmHg 85%

    5 Mai, Vineri

    Timp Temperatura Precipitaţii Vânt Presiune Umiditate
    00:00 +25°C° 0 mm 2 m/s 752 mmHg 85%
    01:00 +25°C° 0 mm 2 m/s 752 mmHg 86%
    02:00 +25°C° 0 mm 2 m/s 751 mmHg 85%
    03:00 +25°C° 0 mm 2 m/s 751 mmHg 84%
    04:00 +24°C° 0 mm 2 m/s 751 mmHg 84%
    05:00 +25°C° 0 mm 2 m/s 752 mmHg 80%
    06:00 +26°C° 0 mm 2 m/s 752 mmHg 77%
    07:00 +26°C° 0 mm 2 m/s 752 mmHg 74%
    08:00 +29°C° 0 mm 2 m/s 752 mmHg 61%
    09:00 +33°C° 0 mm 3 m/s 752 mmHg 49%
    10:00 +36°C° 0 mm 3 m/s 753 mmHg 36%
    11:00 +38°C° 0 mm 3 m/s 752 mmHg 31%
    12:00 +41°C° 0 mm 4 m/s 751 mmHg 26%
    13:00 +43°C° 0 mm 5 m/s 750 mmHg 21%
    14:00 +42°C° 0 mm 5 m/s 750 mmHg 26%
    15:00 +40°C° 0 mm 5 m/s 749 mmHg 30%
    16:00 +39°C° 0 mm 5 m/s 749 mmHg 34%
    17:00 +36°C° 0 mm 5 m/s 749 mmHg 46%
    18:00 +33°C° 0 mm 4 m/s 750 mmHg 57%
    19:00 +29°C° 0 mm 4 m/s 751 mmHg 69%
    20:00 +28°C° 0 mm 3 m/s 751 mmHg 73%
    21:00 +27°C° 0 mm 3 m/s 751 mmHg 77%
    22:00 +27°C° 0 mm 2 m/s 752 mmHg 82%
    23:00 +26°C° 0 mm 2 m/s 752 mmHg 81%
    Arată mai mult